Data supplied by UK-AIR on 6/6/2017
All Data GMT hour ending 
Status: R =Ratified P=Provisional,P*=As supplied
,,Barnsley Gawber,,,,,,,,,,,,,,,,,,,,,,,
Date,time,"Nitric oxide",status,unit,"Nitrogen dioxide",status,unit,"Nitrogen oxides as nitrogen dioxide",status,unit,"Ozone",status,unit,"Sulphur dioxide",status,unit
 
01-01-2016,01:00,2.28422,R,ugm-3,17.91694,R,ugm-3,21.41936,R,ugm-3,47.36461,R,ugm-3,2.40191,R,ugm-3
01-01-2016,02:00,2.11833,R,ugm-3,17.91630,R,ugm-3,21.16436,R,ugm-3,47.09852,R,ugm-3,3.11325,R,ugm-3
01-01-2016,03:00,2.99040,R,ugm-3,19.58304,R,ugm-3,24.16826,R,ugm-3,44.25465,R,ugm-3,1.93447,R,ugm-3
01-01-2016,04:00,2.71038,R,ugm-3,18.86825,R,ugm-3,23.02411,R,ugm-3,46.20046,R,ugm-3,2.46932,R,ugm-3
01-01-2016,05:00,2.24265,R,ugm-3,19.77621,R,ugm-3,23.21488,R,ugm-3,41.16131,R,ugm-3,2.60303,R,ugm-3
01-01-2016,06:00,1.65111,R,ugm-3,19.87231,R,ugm-3,22.40398,R,ugm-3,41.06153,R,ugm-3,2.13471,R,ugm-3
01-01-2016,07:00,2.92835,R,ugm-3,24.77835,R,ugm-3,29.26842,R,ugm-3,34.67529,R,ugm-3,2.46932,R,ugm-3
01-01-2016,08:00,3.14663,R,ugm-3,26.20747,R,ugm-3,31.03223,R,ugm-3,35.02454,R,ugm-3,2.73541,R,ugm-3
01-01-2016,09:00,4.76593,R,ugm-3,34.97484,R,ugm-3,42.28251,R,ugm-3,22.40173,R,ugm-3,2.80259,R,ugm-3
01-01-2016,10:00,6.04348,R,ugm-3,35.16083,R,ugm-3,44.42738,R,ugm-3,19.05894,R,ugm-3,2.73607,R,ugm-3
01-01-2016,11:00,9.34540,R,ugm-3,36.67649,R,ugm-3,51.00590,R,ugm-3,18.31055,R,ugm-3,3.46981,R,ugm-3
01-01-2016,12:00,13.45743,R,ugm-3,44.62436,R,ugm-3,65.25880,R,ugm-3,19.10883,R,ugm-3,2.60303,R,ugm-3
01-01-2016,13:00,11.24535,R,ugm-3,40.96097,R,ugm-3,58.20359,R,ugm-3,18.65980,R,ugm-3,2.26842,R,ugm-3
01-01-2016,14:00,5.79402,R,ugm-3,33.06473,R,ugm-3,41.94878,R,ugm-3,27.39098,R,ugm-3,3.00216,R,ugm-3
01-01-2016,15:00,3.80052,R,ugm-3,28.44700,R,ugm-3,34.27439,R,ugm-3,35.82282,R,ugm-3,2.93564,R,ugm-3
01-01-2016,16:00,3.86289,R,ugm-3,30.68702,R,ugm-3,36.61003,R,ugm-3,32.92905,R,ugm-3,2.33494,R,ugm-3
01-01-2016,17:00,3.61312,R,ugm-3,30.25910,R,ugm-3,35.79913,R,ugm-3,33.62755,R,ugm-3,2.60170,R,ugm-3
01-01-2016,18:00,2.99071,R,ugm-3,27.49506,R,ugm-3,32.08075,R,ugm-3,36.97034,R,ugm-3,2.60236,R,ugm-3
01-01-2016,19:00,2.89717,R,ugm-3,24.44558,R,ugm-3,28.88783,R,ugm-3,40.81207,R,ugm-3,2.00166,R,ugm-3
01-01-2016,20:00,2.74125,R,ugm-3,20.82330,R,ugm-3,25.02650,R,ugm-3,43.60605,R,ugm-3,3.66938,R,ugm-3
01-01-2016,21:00,1.65143,R,ugm-3,19.01503,R,ugm-3,21.54718,R,ugm-3,43.60605,R,ugm-3,3.60219,R,ugm-3
01-01-2016,22:00,1.93082,R,ugm-3,18.49053,R,ugm-3,21.45108,R,ugm-3,42.90755,R,ugm-3,3.33610,R,ugm-3
01-01-2016,23:00,1.52670,R,ugm-3,15.77382,R,ugm-3,18.11472,R,ugm-3,42.15916,R,ugm-3,3.06868,R,ugm-3
01-01-2016,24:00,1.37078,R,ugm-3,15.15465,R,ugm-3,17.25649,R,ugm-3,43.35658,R,ugm-3,2.73541,R,ugm-3
02-01-2016,01:00,1.36954,R,ugm-3,13.71008,R,ugm-3,15.81000,R,ugm-3,44.70368,R,ugm-3,6.46865,R,ugm-3
02-01-2016,02:00,1.20323,R,ugm-3,15.36248,R,ugm-3,17.20740,R,ugm-3,45.56848,R,ugm-3,6.46865,R,ugm-3
02-01-2016,03:00,1.33835,R,ugm-3,14.99591,R,ugm-3,17.04803,R,ugm-3,43.40648,R,ugm-3,6.84517,R,ugm-3
02-01-2016,04:00,1.40041,R,ugm-3,14.37722,R,ugm-3,16.52448,R,ugm-3,43.45637,R,ugm-3,7.44254,R,ugm-3
02-01-2016,05:00,1.46308,R,ugm-3,14.23378,R,ugm-3,16.47714,R,ugm-3,43.05723,R,ugm-3,7.64211,R,ugm-3
02-01-2016,06:00,1.80484,R,ugm-3,16.47188,R,ugm-3,19.23927,R,ugm-3,40.86196,R,ugm-3,7.44254,R,ugm-3
02-01-2016,07:00,1.89839,R,ugm-3,15.75661,R,ugm-3,18.66743,R,ugm-3,40.76217,R,ugm-3,7.64211,R,ugm-3
02-01-2016,08:00,2.08549,R,ugm-3,17.27944,R,ugm-3,20.47714,R,ugm-3,38.16776,R,ugm-3,6.51322,R,ugm-3
02-01-2016,09:00,2.27165,R,ugm-3,19.61317,R,ugm-3,23.09631,R,ugm-3,35.72303,R,ugm-3,6.64626,R,ugm-3
02-01-2016,10:00,2.20928,R,ugm-3,21.04228,R,ugm-3,24.42980,R,ugm-3,34.62540,R,ugm-3,6.91102,R,ugm-3
02-01-2016,11:00,2.61403,R,ugm-3,23.37458,R,ugm-3,27.38270,R,ugm-3,32.38023,R,ugm-3,5.78214,R,ugm-3
02-01-2016,12:00,3.08083,R,ugm-3,23.99183,R,ugm-3,28.71571,R,ugm-3,30.48432,R,ugm-3,4.65192,R,ugm-3
02-01-2016,13:00,3.76560,R,ugm-3,27.51323,R,ugm-3,33.28706,R,ugm-3,27.74023,R,ugm-3,4.65125,R,ugm-3
02-01-2016,14:00,3.54763,R,ugm-3,28.08554,R,ugm-3,33.52517,R,ugm-3,27.54066,R,ugm-3,5.44952,R,ugm-3
02-01-2016,15:00,2.76963,R,ugm-3,26.85007,R,ugm-3,31.09677,R,ugm-3,29.18711,R,ugm-3,4.31931,R,ugm-3
02-01-2016,16:00,2.95641,R,ugm-3,27.03988,R,ugm-3,31.57298,R,ugm-3,29.68604,R,ugm-3,2.06087,R,ugm-3
02-01-2016,17:00,2.98760,R,ugm-3,27.75372,R,ugm-3,32.33464,R,ugm-3,29.13722,R,ugm-3,1.46217,R,ugm-3
02-01-2016,18:00,2.76994,R,ugm-3,27.56391,R,ugm-3,31.81109,R,ugm-3,30.48432,R,ugm-3,2.72543,R,ugm-3
02-01-2016,19:00,2.80081,R,ugm-3,27.08769,R,ugm-3,31.38221,R,ugm-3,31.68174,R,ugm-3,2.99085,R,ugm-3
02-01-2016,20:00,3.04965,R,ugm-3,27.56391,R,ugm-3,32.23997,R,ugm-3,31.58195,R,ugm-3,4.85149,R,ugm-3
02-01-2016,21:00,3.39203,R,ugm-3,28.60957,R,ugm-3,33.81061,R,ugm-3,29.93550,R,ugm-3,5.71495,R,ugm-3
02-01-2016,22:00,4.13885,R,ugm-3,29.84552,R,ugm-3,36.19167,R,ugm-3,30.13507,R,ugm-3,6.84517,R,ugm-3
02-01-2016,23:00,3.73410,R,ugm-3,29.41855,R,ugm-3,35.14410,R,ugm-3,30.08518,R,ugm-3,7.70863,R,ugm-3
02-01-2016,24:00,4.29445,R,ugm-3,28.13096,R,ugm-3,34.71570,R,ugm-3,28.78797,R,ugm-3,6.17994,R,ugm-3
03-01-2016,01:00,5.38335,R,ugm-3,30.97039,R,ugm-3,39.22474,R,ugm-3,25.87758,R,ugm-3,5.91341,R,ugm-3
03-01-2016,02:00,6.66723,R,ugm-3,29.63546,R,ugm-3,39.85841,R,ugm-3,22.35184,R,ugm-3,6.00033,R,ugm-3
03-01-2016,03:00,7.54710,R,ugm-3,28.25432,R,ugm-3,39.82638,R,ugm-3,17.36259,R,ugm-3,6.95027,R,ugm-3
03-01-2016,04:00,7.70270,R,ugm-3,28.53880,R,ugm-3,40.34945,R,ugm-3,17.31270,R,ugm-3,7.14851,R,ugm-3
03-01-2016,05:00,8.29267,R,ugm-3,29.77284,R,ugm-3,42.48810,R,ugm-3,16.71399,R,ugm-3,7.14917,R,ugm-3
03-01-2016,06:00,6.52244,R,ugm-3,28.78026,R,ugm-3,38.78120,R,ugm-3,24.24776,R,ugm-3,6.35356,R,ugm-3
03-01-2016,07:00,5.93216,R,ugm-3,24.60001,R,ugm-3,33.69586,R,ugm-3,28.08948,R,ugm-3,6.68485,R,ugm-3
03-01-2016,08:00,5.12484,R,ugm-3,27.45346,R,ugm-3,35.31144,R,ugm-3,38.41723,R,ugm-3,8.27340,R,ugm-3
03-01-2016,09:00,2.98136,R,ugm-3,22.94618,R,ugm-3,27.51753,R,ugm-3,44.50411,R,ugm-3,7.28089,R,ugm-3
03-01-2016,10:00,2.82607,R,ugm-3,24.13527,R,ugm-3,28.46852,R,ugm-3,42.50841,R,ugm-3,6.42075,R,ugm-3
03-01-2016,11:00,3.97515,R,ugm-3,30.68941,R,ugm-3,36.78455,R,ugm-3,39.01594,R,ugm-3,5.49476,R,ugm-3
03-01-2016,12:00,4.34809,R,ugm-3,35.39320,R,ugm-3,42.06018,R,ugm-3,38.51701,R,ugm-3,5.82538,R,ugm-3
03-01-2016,13:00,3.13696,R,ugm-3,29.97844,R,ugm-3,34.78838,R,ugm-3,42.50841,R,ugm-3,6.02295,R,ugm-3
03-01-2016,14:00,3.78899,R,ugm-3,29.35927,R,ugm-3,35.16896,R,ugm-3,40.06368,R,ugm-3,6.48594,R,ugm-3
03-01-2016,15:00,2.04963,R,ugm-3,22.14101,R,ugm-3,25.28373,R,ugm-3,47.09852,R,ugm-3,7.01613,R,ugm-3
03-01-2016,16:00,2.04994,R,ugm-3,19.43100,R,ugm-3,22.57419,R,ugm-3,50.34153,R,ugm-3,6.42075,R,ugm-3
03-01-2016,17:00,2.70196,R,ugm-3,25.08531,R,ugm-3,29.22826,R,ugm-3,45.40218,R,ugm-3,3.90487,R,ugm-3
03-01-2016,18:00,4.13075,R,ugm-3,32.11470,R,ugm-3,38.44842,R,ugm-3,36.67099,R,ugm-3,7.28089,R,ugm-3
03-01-2016,19:00,5.37306,R,ugm-3,33.29854,R,ugm-3,41.53711,R,ugm-3,42.20906,R,ugm-3,7.87626,R,ugm-3
03-01-2016,20:00,6.42890,R,ugm-3,48.55120,R,ugm-3,58.40871,R,ugm-3,25.74453,R,ugm-3,7.81041,R,ugm-3
03-01-2016,21:00,5.34187,R,ugm-3,43.80247,R,ugm-3,51.99323,R,ugm-3,28.33894,R,ugm-3,8.27340,R,ugm-3
03-01-2016,22:00,3.78899,R,ugm-3,36.91555,R,ugm-3,42.72525,R,ugm-3,33.12862,R,ugm-3,7.61217,R,ugm-3
03-01-2016,23:00,2.88844,R,ugm-3,26.65260,R,ugm-3,31.08147,R,ugm-3,38.21766,R,ugm-3,7.28155,R,ugm-3
03-01-2016,24:00,2.54668,R,ugm-3,27.79436,R,ugm-3,31.69921,R,ugm-3,34.17636,R,ugm-3,7.47846,R,ugm-3
04-01-2016,01:00,2.88417,R,ugm-3,29.40596,R,ugm-3,33.82830,R,ugm-3,31.46554,R,ugm-3,1.49010,R,ugm-3
04-01-2016,02:00,3.62549,R,ugm-3,32.05605,R,ugm-3,37.61505,R,ugm-3,28.27242,R,ugm-3,1.84046,R,ugm-3
04-01-2016,03:00,3.64648,R,ugm-3,33.50700,R,ugm-3,39.09819,R,ugm-3,17.66195,R,ugm-3,1.90587,R,ugm-3
04-01-2016,04:00,4.23365,R,ugm-3,34.73674,R,ugm-3,41.22824,R,ugm-3,22.80087,R,ugm-3,2.49792,R,ugm-3
04-01-2016,05:00,4.11017,R,ugm-3,33.50604,R,ugm-3,39.80821,R,ugm-3,24.39743,R,ugm-3,3.22102,R,ugm-3
04-01-2016,06:00,4.23365,R,ugm-3,34.59473,R,ugm-3,41.08624,R,ugm-3,20.25636,R,ugm-3,1.44620,R,ugm-3
04-01-2016,07:00,7.04569,R,ugm-3,42.25860,R,ugm-3,53.06183,R,ugm-3,14.71829,R,ugm-3,2.82588,R,ugm-3
04-01-2016,08:00,8.96154,R,ugm-3,46.98917,R,ugm-3,60.73000,R,ugm-3,10.07829,R,ugm-3,3.28621,R,ugm-3
04-01-2016,09:00,20.79686,R,ugm-3,55.82253,R,ugm-3,87.71060,R,ugm-3,3.64215,R,ugm-3,2.82588,R,ugm-3
04-01-2016,10:00,21.53869,R,ugm-3,50.51964,R,ugm-3,83.54517,R,ugm-3,4.78968,R,ugm-3,4.53417,R,ugm-3
04-01-2016,11:00,13.10258,R,ugm-3,44.18975,R,ugm-3,64.28008,R,ugm-3,9.77893,R,ugm-3,2.76002,R,ugm-3
04-01-2016,12:00,11.58804,R,ugm-3,42.34658,R,ugm-3,60.11466,R,ugm-3,12.77248,R,ugm-3,4.27274,R,ugm-3
04-01-2016,13:00,14.30778,R,ugm-3,45.51320,R,ugm-3,67.45148,R,ugm-3,10.52732,R,ugm-3,3.94345,R,ugm-3
04-01-2016,14:00,11.31021,R,ugm-3,45.89665,R,ugm-3,63.23873,R,ugm-3,13.12173,R,ugm-3,4.00931,R,ugm-3
04-01-2016,15:00,9.98121,R,ugm-3,48.45510,R,ugm-3,63.75940,R,ugm-3,11.62495,R,ugm-3,4.14103,R,ugm-3
04-01-2016,16:00,6.36560,R,ugm-3,46.28346,R,ugm-3,56.04390,R,ugm-3,15.61635,R,ugm-3,4.60070,R,ugm-3
04-01-2016,17:00,8.86893,R,ugm-3,53.28464,R,ugm-3,66.88347,R,ugm-3,9.52947,R,ugm-3,3.22102,R,ugm-3
04-01-2016,18:00,14.49300,R,ugm-3,58.86149,R,ugm-3,81.08378,R,ugm-3,6.33635,R,ugm-3,3.15516,R,ugm-3
04-01-2016,19:00,13.72061,R,ugm-3,59.19379,R,ugm-3,80.23177,R,ugm-3,6.43613,R,ugm-3,3.02278,R,ugm-3
04-01-2016,20:00,11.09380,R,ugm-3,56.68937,R,ugm-3,73.69962,R,ugm-3,6.58581,R,ugm-3,3.08864,R,ugm-3
04-01-2016,21:00,11.27902,R,ugm-3,55.97935,R,ugm-3,73.27361,R,ugm-3,6.88517,R,ugm-3,2.62897,R,ugm-3
04-01-2016,22:00,6.45852,R,ugm-3,47.22967,R,ugm-3,57.13259,R,ugm-3,12.77248,R,ugm-3,3.61550,R,ugm-3
04-01-2016,23:00,4.20278,R,ugm-3,39.56484,R,ugm-3,46.00901,R,ugm-3,16.76388,R,ugm-3,1.90587,R,ugm-3
04-01-2016,24:00,3.30690,R,ugm-3,32.13430,R,ugm-3,37.20482,R,ugm-3,23.94840,R,ugm-3,2.95759,R,ugm-3
05-01-2016,01:00,2.58274,R,ugm-3,26.77691,R,ugm-3,30.73706,R,ugm-3,29.86898,R,ugm-3,5.74932,R,ugm-3
05-01-2016,02:00,2.41852,R,ugm-3,29.79420,R,ugm-3,33.50254,R,ugm-3,26.94195,R,ugm-3,6.53251,R,ugm-3
05-01-2016,03:00,2.64428,R,ugm-3,30.07741,R,ugm-3,34.13191,R,ugm-3,24.79657,R,ugm-3,5.87992,R,ugm-3
05-01-2016,04:00,2.52142,R,ugm-3,29.93541,R,ugm-3,33.80153,R,ugm-3,25.39528,R,ugm-3,6.00964,R,ugm-3
05-01-2016,05:00,2.49023,R,ugm-3,27.06044,R,ugm-3,30.87875,R,ugm-3,27.88991,R,ugm-3,6.14069,R,ugm-3
05-01-2016,06:00,3.32031,R,ugm-3,28.94617,R,ugm-3,34.03724,R,ugm-3,25.59485,R,ugm-3,4.89938,R,ugm-3
05-01-2016,07:00,8.45482,R,ugm-3,37.19717,R,ugm-3,50.16105,R,ugm-3,17.61205,R,ugm-3,3.78912,R,ugm-3
05-01-2016,08:00,8.70085,R,ugm-3,48.08599,R,ugm-3,61.42711,R,ugm-3,9.03054,R,ugm-3,5.29120,R,ugm-3
05-01-2016,09:00,14.26631,R,ugm-3,52.42306,R,ugm-3,74.29776,R,ugm-3,5.43828,R,ugm-3,5.16015,R,ugm-3
05-01-2016,10:00,15.92646,R,ugm-3,52.14049,R,ugm-3,76.56072,R,ugm-3,6.18667,R,ugm-3,5.48678,R,ugm-3
05-01-2016,11:00,11.31426,R,ugm-3,45.30473,R,ugm-3,62.65302,R,ugm-3,12.32345,R,ugm-3,3.92017,R,ugm-3
05-01-2016,12:00,8.76259,R,ugm-3,41.20338,R,ugm-3,54.63917,R,ugm-3,15.01764,R,ugm-3,0.97988,R,ugm-3
05-01-2016,13:00,10.39188,R,ugm-3,39.74175,R,ugm-3,55.67574,R,ugm-3,18.01119,R,ugm-3,2.02561,R,ugm-3
05-01-2016,14:00,6.36435,R,ugm-3,35.82878,R,ugm-3,45.58731,R,ugm-3,25.79442,R,ugm-3,1.96042,R,ugm-3
05-01-2016,15:00,8.94720,R,ugm-3,48.50961,R,ugm-3,62.22845,R,ugm-3,16.41463,R,ugm-3,4.83419,R,ugm-3
05-01-2016,16:00,10.66878,R,ugm-3,51.99896,R,ugm-3,68.35753,R,ugm-3,12.52302,R,ugm-3,4.63795,R,ugm-3
05-01-2016,17:00,13.12846,R,ugm-3,58.92891,R,ugm-3,79.05893,R,ugm-3,6.63570,R,ugm-3,5.74821,R,ugm-3
05-01-2016,18:00,28.16310,R,ugm-3,65.57628,R,ugm-3,108.75909,R,ugm-3,1.94581,R,ugm-3,5.29187,R,ugm-3
05-01-2016,19:00,42.36766,R,ugm-3,63.50217,R,ugm-3,128.46502,R,ugm-3,1.79613,R,ugm-3,6.99018,R,ugm-3
05-01-2016,20:00,75.51217,R,ugm-3,67.41419,R,ugm-3,183.19790,R,ugm-3,1.79613,R,ugm-3,7.44653,R,ugm-3
05-01-2016,21:00,37.32545,R,ugm-3,62.60617,R,ugm-3,119.83773,R,ugm-3,1.79613,R,ugm-3,6.79394,R,ugm-3
05-01-2016,22:00,54.91238,R,ugm-3,60.20120,R,ugm-3,144.39901,R,ugm-3,1.84602,R,ugm-3,7.97006,R,ugm-3
05-01-2016,23:00,40.58465,R,ugm-3,56.66594,R,ugm-3,118.89487,R,ugm-3,1.69635,R,ugm-3,6.40146,R,ugm-3
05-01-2016,24:00,34.25086,R,ugm-3,55.15746,R,ugm-3,107.67471,R,ugm-3,1.54667,R,ugm-3,5.42225,R,ugm-3
06-01-2016,01:00,20.65903,R,ugm-3,50.51996,R,ugm-3,82.19670,R,ugm-3,1.59656,R,ugm-3,5.79367,R,ugm-3
06-01-2016,02:00,14.61669,R,ugm-3,51.08288,R,ugm-3,73.49483,R,ugm-3,1.79613,R,ugm-3,7.09130,R,ugm-3
06-01-2016,03:00,12.00339,R,ugm-3,47.32768,R,ugm-3,65.73263,R,ugm-3,2.69420,R,ugm-3,5.90121,R,ugm-3
06-01-2016,04:00,11.81973,R,ugm-3,46.24760,R,ugm-3,64.37093,R,ugm-3,3.24301,R,ugm-3,5.31914,R,ugm-3
06-01-2016,05:00,8.20661,R,ugm-3,28.17113,R,ugm-3,40.75442,R,ugm-3,21.95270,R,ugm-3,4.66988,R,ugm-3
06-01-2016,06:00,7.07344,R,ugm-3,27.46685,R,ugm-3,38.31263,R,ugm-3,24.09808,R,ugm-3,3.24231,R,ugm-3
06-01-2016,07:00,7.47133,R,ugm-3,32.96050,R,ugm-3,44.41638,R,ugm-3,17.41248,R,ugm-3,4.54016,R,ugm-3
06-01-2016,08:00,13.10601,R,ugm-3,43.28992,R,ugm-3,63.38551,R,ugm-3,5.43828,R,ugm-3,3.76251,R,ugm-3
06-01-2016,09:00,15.46371,R,ugm-3,46.90502,R,ugm-3,70.61572,R,ugm-3,6.28646,R,ugm-3,2.59438,R,ugm-3
06-01-2016,10:00,8.60481,R,ugm-3,39.86176,R,ugm-3,53.05562,R,ugm-3,14.46883,R,ugm-3,2.52919,R,ugm-3
06-01-2016,11:00,7.04288,R,ugm-3,36.20028,R,ugm-3,46.99921,R,ugm-3,23.34969,R,ugm-3,4.08648,R,ugm-3
06-01-2016,12:00,11.48296,R,ugm-3,38.64111,R,ugm-3,56.24806,R,ugm-3,19.85722,R,ugm-3,3.17778,R,ugm-3
06-01-2016,13:00,10.28867,R,ugm-3,39.39272,R,ugm-3,55.16845,R,ugm-3,22.25206,R,ugm-3,3.30750,R,ugm-3
06-01-2016,14:00,9.82966,R,ugm-3,39.25119,R,ugm-3,54.32313,R,ugm-3,23.34969,R,ugm-3,3.30683,R,ugm-3
06-01-2016,15:00,11.51351,R,ugm-3,43.43048,R,ugm-3,61.08429,R,ugm-3,12.17377,R,ugm-3,3.30816,R,ugm-3
06-01-2016,16:00,28.78394,R,ugm-3,55.30950,R,ugm-3,99.44426,R,ugm-3,3.24301,R,ugm-3,3.89223,R,ugm-3
06-01-2016,17:00,29.18183,R,ugm-3,66.10843,R,ugm-3,110.85328,R,ugm-3,2.49463,R,ugm-3,6.81057,R,ugm-3
06-01-2016,18:00,31.47873,R,ugm-3,71.93008,R,ugm-3,120.19680,R,ugm-3,2.34495,R,ugm-3,8.30201,R,ugm-3
06-01-2016,19:00,21.86361,R,ugm-3,68.17441,R,ugm-3,101.69814,R,ugm-3,2.24516,R,ugm-3,6.35556,R,ugm-3
06-01-2016,20:00,18.18875,R,ugm-3,64.46559,R,ugm-3,92.35463,R,ugm-3,3.74194,R,ugm-3,6.16198,R,ugm-3
06-01-2016,21:00,12.49327,R,ugm-3,57.70395,R,ugm-3,76.86003,R,ugm-3,6.58581,R,ugm-3,6.81057,R,ugm-3
06-01-2016,22:00,4.10331,R,ugm-3,35.02600,R,ugm-3,41.31765,R,ugm-3,21.70324,R,ugm-3,5.51339,R,ugm-3
06-01-2016,23:00,3.95020,R,ugm-3,35.30810,R,ugm-3,41.36498,R,ugm-3,22.10238,R,ugm-3,4.79960,R,ugm-3
06-01-2016,24:00,3.85821,R,ugm-3,37.37360,R,ugm-3,43.28944,R,ugm-3,18.11098,R,ugm-3,4.28072,R,ugm-3
07-01-2016,01:00,3.24922,R,ugm-3,41.59177,R,ugm-3,46.57384,R,ugm-3,13.77033,R,ugm-3,1.89013,R,ugm-3
07-01-2016,02:00,4.10279,R,ugm-3,51.94159,R,ugm-3,58.23244,R,ugm-3,8.84760,R,ugm-3,3.18066,R,ugm-3
07-01-2016,03:00,3.47311,R,ugm-3,52.98533,R,ugm-3,58.31069,R,ugm-3,6.08689,R,ugm-3,3.15915,R,ugm-3
07-01-2016,04:00,3.41199,R,ugm-3,49.61886,R,ugm-3,54.85050,R,ugm-3,9.57936,R,ugm-3,2.83585,R,ugm-3
07-01-2016,05:00,2.19369,R,ugm-3,29.83643,R,ugm-3,33.20004,R,ugm-3,27.54066,R,ugm-3,3.48112,R,ugm-3
07-01-2016,06:00,2.19338,R,ugm-3,20.43745,R,ugm-3,23.80058,R,ugm-3,36.97034,R,ugm-3,3.41660,R,ugm-3
07-01-2016,07:00,3.53423,R,ugm-3,21.93638,R,ugm-3,27.35544,R,ugm-3,44.80347,R,ugm-3,2.70747,R,ugm-3
07-01-2016,08:00,3.89968,R,ugm-3,30.16682,R,ugm-3,36.14625,R,ugm-3,41.85981,R,ugm-3,0.77366,R,ugm-3
07-01-2016,09:00,5.14854,R,ugm-3,35.96743,R,ugm-3,43.86175,R,ugm-3,38.11787,R,ugm-3,2.64294,R,ugm-3
07-01-2016,10:00,9.20071,R,ugm-3,45.23158,R,ugm-3,59.33914,R,ugm-3,25.54496,R,ugm-3,3.61018,R,ugm-3
07-01-2016,11:00,18.79712,R,ugm-3,56.93704,R,ugm-3,85.75889,R,ugm-3,12.27356,R,ugm-3,5.15682,R,ugm-3
07-01-2016,12:00,17.09082,R,ugm-3,47.25548,R,ugm-3,73.46104,R,ugm-3,24.24776,R,ugm-3,5.15749,R,ugm-3
07-01-2016,13:00,2.89405,R,ugm-3,22.40303,R,ugm-3,26.84050,R,ugm-3,56.02928,R,ugm-3,6.05954,R,ugm-3
07-01-2016,14:00,2.16313,R,ugm-3,16.88355,R,ugm-3,20.20030,R,ugm-3,56.42842,R,ugm-3,5.02844,R,ugm-3
07-01-2016,15:00,2.13257,R,ugm-3,17.44487,R,ugm-3,20.71477,R,ugm-3,56.02928,R,ugm-3,5.09230,R,ugm-3
07-01-2016,16:00,2.77212,R,ugm-3,20.67269,R,ugm-3,24.92322,R,ugm-3,56.47831,R,ugm-3,10.63628,R,ugm-3
07-01-2016,17:00,3.38143,R,ugm-3,22.40398,R,ugm-3,27.58877,R,ugm-3,51.23960,R,ugm-3,8.12173,R,ugm-3
07-01-2016,18:00,3.04591,R,ugm-3,23.85366,R,ugm-3,28.52398,R,ugm-3,46.59960,R,ugm-3,5.47946,R,ugm-3
07-01-2016,19:00,2.68076,R,ugm-3,20.71955,R,ugm-3,24.82999,R,ugm-3,52.13766,R,ugm-3,4.38383,R,ugm-3
07-01-2016,20:00,2.28505,R,ugm-3,17.44535,R,ugm-3,20.94905,R,ugm-3,52.98584,R,ugm-3,3.35273,R,ugm-3
07-01-2016,21:00,2.16313,R,ugm-3,17.86610,R,ugm-3,21.18285,R,ugm-3,52.83616,R,ugm-3,3.22368,R,ugm-3
07-01-2016,22:00,2.04152,R,ugm-3,17.07050,R,ugm-3,20.20078,R,ugm-3,52.18756,R,ugm-3,3.28821,R,ugm-3
07-01-2016,23:00,1.98040,R,ugm-3,17.58496,R,ugm-3,20.62153,R,ugm-3,52.23745,R,ugm-3,1.35307,R,ugm-3
07-01-2016,24:00,1.85848,R,ugm-3,20.90506,R,ugm-3,23.75468,R,ugm-3,45.10282,R,ugm-3,1.28854,R,ugm-3
08-01-2016,01:00,1.90130,R,ugm-3,18.15536,R,ugm-3,21.07065,R,ugm-3,45.83458,R,ugm-3,4.52176,R,ugm-3
08-01-2016,02:00,2.06303,R,ugm-3,18.59078,R,ugm-3,21.75405,R,ugm-3,51.35601,R,ugm-3,3.92483,R,ugm-3
08-01-2016,03:00,1.72938,R,ugm-3,15.76139,R,ugm-3,18.41307,R,ugm-3,45.65164,R,ugm-3,4.60735,R,ugm-3
08-01-2016,04:00,2.94300,R,ugm-3,17.02460,R,ugm-3,21.53714,R,ugm-3,47.84691,R,ugm-3,4.22351,R,ugm-3
08-01-2016,05:00,2.30563,R,ugm-3,15.71740,R,ugm-3,19.25266,R,ugm-3,57.27659,R,ugm-3,4.28804,R,ugm-3
08-01-2016,06:00,4.24737,R,ugm-3,28.03151,R,ugm-3,34.54405,R,ugm-3,42.70798,R,ugm-3,2.62431,R,ugm-3
08-01-2016,07:00,7.03883,R,ugm-3,36.99014,R,ugm-3,47.78286,R,ugm-3,35.67314,R,ugm-3,4.60801,R,ugm-3
08-01-2016,08:00,11.28682,R,ugm-3,48.89019,R,ugm-3,66.19641,R,ugm-3,22.80087,R,ugm-3,1.66373,R,ugm-3
08-01-2016,09:00,13.65295,R,ugm-3,52.39437,R,ugm-3,73.32860,R,ugm-3,18.41033,R,ugm-3,3.77515,R,ugm-3
08-01-2016,10:00,12.89490,R,ugm-3,46.33127,R,ugm-3,66.10317,R,ugm-3,23.29980,R,ugm-3,2.11276,R,ugm-3
08-01-2016,11:00,12.77329,R,ugm-3,46.56412,R,ugm-3,66.14955,R,ugm-3,23.99829,R,ugm-3,4.67188,R,ugm-3
08-01-2016,12:00,8.76821,R,ugm-3,42.16967,R,ugm-3,55.61407,R,ugm-3,30.58410,R,ugm-3,3.00748,R,ugm-3
08-01-2016,13:00,8.00954,R,ugm-3,38.62485,R,ugm-3,50.90597,R,ugm-3,35.02454,R,ugm-3,3.07201,R,ugm-3
08-01-2016,14:00,6.15948,R,ugm-3,31.81205,R,ugm-3,41.25645,R,ugm-3,43.65594,R,ugm-3,4.15899,R,ugm-3
08-01-2016,15:00,6.67461,R,ugm-3,31.39464,R,ugm-3,41.62891,R,ugm-3,42.85766,R,ugm-3,3.13654,R,ugm-3
08-01-2016,16:00,14.98818,R,ugm-3,52.53733,R,ugm-3,75.51889,R,ugm-3,24.99614,R,ugm-3,7.74322,R,ugm-3
08-01-2016,17:00,15.01874,R,ugm-3,58.92413,R,ugm-3,81.95254,R,ugm-3,22.40173,R,ugm-3,8.44703,R,ugm-3
08-01-2016,18:00,22.96809,R,ugm-3,68.87869,R,ugm-3,104.09594,R,ugm-3,16.76388,R,ugm-3,8.51089,R,ugm-3
08-01-2016,19:00,23.81751,R,ugm-3,60.30352,R,ugm-3,96.82318,R,ugm-3,19.70754,R,ugm-3,8.63928,R,ugm-3
08-01-2016,20:00,10.49759,R,ugm-3,48.56172,R,ugm-3,64.65780,R,ugm-3,28.88776,R,ugm-3,8.19092,R,ugm-3
08-01-2016,21:00,5.58292,R,ugm-3,36.61147,R,ugm-3,45.17182,R,ugm-3,37.12002,R,ugm-3,7.80775,R,ugm-3
08-01-2016,22:00,3.18592,R,ugm-3,26.34851,R,ugm-3,31.23352,R,ugm-3,43.45637,R,ugm-3,6.46399,R,ugm-3
08-01-2016,23:00,6.28078,R,ugm-3,35.96122,R,ugm-3,45.59161,R,ugm-3,30.53421,R,ugm-3,5.63113,R,ugm-3
08-01-2016,24:00,4.67239,R,ugm-3,38.33367,R,ugm-3,45.49790,R,ugm-3,25.89421,R,ugm-3,7.35938,R,ugm-3
09-01-2016,01:00,9.49819,R,ugm-3,56.18925,R,ugm-3,70.75294,R,ugm-3,7.38409,R,ugm-3,4.06586,R,ugm-3
09-01-2016,02:00,13.52240,R,ugm-3,55.15714,R,ugm-3,75.89119,R,ugm-3,3.06007,R,ugm-3,3.81218,R,ugm-3
09-01-2016,03:00,5.88601,R,ugm-3,49.05371,R,ugm-3,58.07880,R,ugm-3,9.97850,R,ugm-3,2.79528,R,ugm-3
09-01-2016,04:00,4.25610,R,ugm-3,39.90001,R,ugm-3,46.42594,R,ugm-3,17.56216,R,ugm-3,3.30351,R,ugm-3
09-01-2016,05:00,2.32434,R,ugm-3,25.12738,R,ugm-3,28.69133,R,ugm-3,36.12217,R,ugm-3,2.41410,R,ugm-3
09-01-2016,06:00,2.14317,R,ugm-3,21.73748,R,ugm-3,25.02363,R,ugm-3,41.31099,R,ugm-3,2.41410,R,ugm-3
09-01-2016,07:00,2.86754,R,ugm-3,28.65833,R,ugm-3,33.05517,R,ugm-3,33.57765,R,ugm-3,2.79528,R,ugm-3
09-01-2016,08:00,4.25610,R,ugm-3,32.84336,R,ugm-3,39.36929,R,ugm-3,32.97894,R,ugm-3,2.85914,R,ugm-3
09-01-2016,09:00,7.99894,R,ugm-3,42.84239,R,ugm-3,55.10725,R,ugm-3,22.00259,R,ugm-3,2.92233,R,ugm-3
09-01-2016,10:00,7.66684,R,ugm-3,39.73075,R,ugm-3,51.48641,R,ugm-3,25.14582,R,ugm-3,2.79461,R,ugm-3
09-01-2016,11:00,7.81745,R,ugm-3,43.16752,R,ugm-3,55.15411,R,ugm-3,27.14152,R,ugm-3,1.65242,R,ugm-3
09-01-2016,12:00,5.64466,R,ugm-3,37.67816,R,ugm-3,46.33318,R,ugm-3,36.47142,R,ugm-3,1.84267,R,ugm-3
09-01-2016,13:00,6.58044,R,ugm-3,31.69299,R,ugm-3,41.78287,R,ugm-3,43.60605,R,ugm-3,3.30351,R,ugm-3
09-01-2016,14:00,5.55392,R,ugm-3,33.17423,R,ugm-3,41.69011,R,ugm-3,45.00304,R,ugm-3,3.24031,R,ugm-3
09-01-2016,15:00,6.36903,R,ugm-3,42.74198,R,ugm-3,52.50769,R,ugm-3,35.17421,R,ugm-3,2.28704,R,ugm-3
09-01-2016,16:00,6.03693,R,ugm-3,44.87586,R,ugm-3,54.13236,R,ugm-3,32.72948,R,ugm-3,2.47796,R,ugm-3
09-01-2016,17:00,4.64838,R,ugm-3,46.03005,R,ugm-3,53.15746,R,ugm-3,29.48647,R,ugm-3,2.92233,R,ugm-3
09-01-2016,18:00,3.95425,R,ugm-3,37.67051,R,ugm-3,43.73362,R,ugm-3,33.32819,R,ugm-3,2.54116,R,ugm-3
09-01-2016,19:00,2.86754,R,ugm-3,29.58685,R,ugm-3,33.98369,R,ugm-3,44.25465,R,ugm-3,2.47663,R,ugm-3
09-01-2016,20:00,2.59626,R,ugm-3,26.24285,R,ugm-3,30.22372,R,ugm-3,44.55400,R,ugm-3,1.77881,R,ugm-3
09-01-2016,21:00,2.14286,R,ugm-3,20.39155,R,ugm-3,23.67723,R,ugm-3,51.63874,R,ugm-3,2.60502,R,ugm-3
09-01-2016,22:00,1.93176,R,ugm-3,17.88283,R,ugm-3,20.84482,R,ugm-3,59.87100,R,ugm-3,2.35024,R,ugm-3
09-01-2016,23:00,2.32403,R,ugm-3,18.16445,R,ugm-3,21.72791,R,ugm-3,55.03143,R,ugm-3,1.97040,R,ugm-3
09-01-2016,24:00,2.14317,R,ugm-3,18.81231,R,ugm-3,22.09846,R,ugm-3,55.48046,R,ugm-3,2.28704,R,ugm-3
10-01-2016,01:00,1.56162,R,ugm-3,13.51054,R,ugm-3,15.90499,R,ugm-3,60.20362,R,ugm-3,2.18815,R,ugm-3
10-01-2016,02:00,1.48138,R,ugm-3,16.40734,R,ugm-3,18.67875,R,ugm-3,59.60491,R,ugm-3,1.51405,R,ugm-3
10-01-2016,03:00,1.62149,R,ugm-3,14.15824,R,ugm-3,16.64449,R,ugm-3,59.52175,R,ugm-3,1.51405,R,ugm-3
10-01-2016,04:00,1.47150,R,ugm-3,13.97225,R,ugm-3,16.22852,R,ugm-3,58.77337,R,ugm-3,1.57791,R,ugm-3
10-01-2016,05:00,1.41132,R,ugm-3,12.35379,R,ugm-3,14.51779,R,ugm-3,60.32003,R,ugm-3,0.44238,R,ugm-3
10-01-2016,06:00,1.08110,R,ugm-3,9.76236,R,ugm-3,11.42002,R,ugm-3,62.86455,R,ugm-3,0.75836,R,ugm-3
10-01-2016,07:00,1.05116,R,ugm-3,9.48457,R,ugm-3,11.09633,R,ugm-3,62.36563,R,ugm-3,0.82089,R,ugm-3
10-01-2016,08:00,1.17122,R,ugm-3,9.90197,R,ugm-3,11.69781,R,ugm-3,63.81251,R,ugm-3,1.38833,R,ugm-3
10-01-2016,09:00,1.29096,R,ugm-3,10.73534,R,ugm-3,12.71478,R,ugm-3,61.56735,R,ugm-3,2.71478,R,ugm-3
10-01-2016,10:00,1.80204,R,ugm-3,11.43101,R,ugm-3,14.19410,R,ugm-3,59.42197,R,ugm-3,2.90437,R,ugm-3
10-01-2016,11:00,1.98165,R,ugm-3,12.08031,R,ugm-3,15.11879,R,ugm-3,58.47401,R,ugm-3,2.90437,R,ugm-3
10-01-2016,12:00,1.95203,R,ugm-3,11.33921,R,ugm-3,14.33228,R,ugm-3,59.52175,R,ugm-3,3.03077,R,ugm-3
10-01-2016,13:00,1.98165,R,ugm-3,11.71024,R,ugm-3,14.74872,R,ugm-3,59.92089,R,ugm-3,3.15716,R,ugm-3
10-01-2016,14:00,2.34212,R,ugm-3,13.37650,R,ugm-3,16.96770,R,ugm-3,57.87530,R,ugm-3,3.22035,R,ugm-3
10-01-2016,15:00,2.61247,R,ugm-3,15.69015,R,ugm-3,19.69588,R,ugm-3,55.13121,R,ugm-3,3.28355,R,ugm-3
10-01-2016,16:00,3.75375,R,ugm-3,23.09487,R,ugm-3,28.85054,R,ugm-3,47.39788,R,ugm-3,3.59953,R,ugm-3
10-01-2016,17:00,4.56418,R,ugm-3,25.22731,R,ugm-3,32.22563,R,ugm-3,46.00089,R,ugm-3,3.53634,R,ugm-3
10-01-2016,18:00,3.12293,R,ugm-3,20.17783,R,ugm-3,24.96625,R,ugm-3,51.88820,R,ugm-3,2.84118,R,ugm-3
10-01-2016,19:00,2.91307,R,ugm-3,21.05519,R,ugm-3,25.52183,R,ugm-3,53.63444,R,ugm-3,2.58839,R,ugm-3
10-01-2016,20:00,2.28194,R,ugm-3,18.00045,R,ugm-3,21.49937,R,ugm-3,56.57810,R,ugm-3,2.58839,R,ugm-3